Time,TemperatureF,DewpointF,PressureIn,WindDirection,WindDirectionDegrees,WindSpeedMPH,WindSpeedGustMPH,Humidity,HourlyPrecipIn,Conditions,Clouds,dailyrainin,SoftwareType,DateUTC
2016-07-27 00:04:00,76.7,44.6,29.99,West,279,1.0,4.0,32,0.00,,,0.00,Wunderground v.1.15,2016-07-27 07:04:00,
2016-07-27 00:10:00,76.7,44.6,30.00,West,279,1.0,1.0,32,0.00,,,0.00,Wunderground v.1.15,2016-07-27 07:10:00,
2016-07-27 00:15:00,76.6,44.5,30.00,West,279,0.0,4.0,32,0.00,,,0.00,Wunderground v.1.15,2016-07-27 07:15:00,
2016-07-27 00:21:00,76.5,44.4,30.00,West,279,1.0,2.0,32,0.00,,,0.00,Wunderground v.1.15,2016-07-27 07:21:00,
2016-07-27 00:26:00,76.5,44.4,30.00,West,279,1.0,4.0,32,0.00,,,0.00,Wunderground v.1.15,2016-07-27 07:26:00,
2016-07-27 00:32:00,76.3,44.3,30.00,West,279,1.0,4.0,32,0.00,,,0.00,Wunderground v.1.15,2016-07-27 07:32:00,
2016-07-27 00:37:00,76.5,44.4,30.00,West,279,1.0,4.0,32,0.00,,,0.00,Wunderground v.1.15,2016-07-27 07:37:00,
2016-07-27 00:42:00,76.7,43.8,30.00,West,279,1.0,4.0,31,0.00,,,0.00,Wunderground v.1.15,2016-07-27 07:42:00,
2016-07-27 00:48:00,76.4,44.4,30.00,West,279,0.0,4.0,32,0.00,,,0.00,Wunderground v.1.15,2016-07-27 07:48:00,
2016-07-27 00:54:00,76.2,44.2,29.99,West,279,0.0,4.0,32,0.00,,,0.00,Wunderground v.1.15,2016-07-27 07:54:00,
2016-07-27 00:59:00,75.8,44.6,30.00,West,279,0.0,4.0,33,0.00,,,0.00,Wunderground v.1.15,2016-07-27 07:59:00,
2016-07-27 01:05:00,75.4,44.3,30.00,West,279,0.0,4.0,33,0.00,,,0.00,Wunderground v.1.15,2016-07-27 08:05:00,
2016-07-27 01:10:00,75.3,44.2,30.00,West,279,0.0,4.0,33,0.00,,,0.00,Wunderground v.1.15,2016-07-27 08:10:00,
2016-07-27 01:15:00,75.1,44.0,30.00,West,279,0.0,4.0,33,0.00,,,0.00,Wunderground v.1.15,2016-07-27 08:15:00,
2016-07-27 01:21:00,75.0,43.1,29.99,West,279,0.0,4.0,32,0.00,,,0.00,Wunderground v.1.15,2016-07-27 08:21:00,
2016-07-27 01:26:00,75.1,43.2,30.00,West,279,0.0,4.0,32,0.00,,,0.00,Wunderground v.1.15,2016-07-27 08:26:00,
2016-07-27 01:32:00,75.0,43.9,30.00,West,279,0.0,4.0,33,0.00,,,0.00,Wunderground v.1.15,2016-07-27 08:32:00,
2016-07-27 01:37:00,74.7,42.9,30.00,West,279,0.0,4.0,32,0.00,,,0.00,Wunderground v.1.15,2016-07-27 08:37:00,
2016-07-27 01:43:00,74.9,43.0,29.99,West,279,0.0,4.0,32,0.00,,,0.00,Wunderground v.1.15,2016-07-27 08:43:00,
2016-07-27 01:48:00,75.1,43.2,29.99,West,279,1.0,4.0,32,0.00,,,0.00,Wunderground v.1.15,2016-07-27 08:48:00,
2016-07-27 01:54:00,75.2,42.5,29.99,West,279,0.0,4.0,31,0.00,,,0.00,Wunderground v.1.15,2016-07-27 08:54:00,
2016-07-27 01:59:00,75.2,42.5,29.99,West,279,0.0,4.0,31,0.00,,,0.00,Wunderground v.1.15,2016-07-27 08:59:00,
2016-07-27 02:04:00,75.2,42.5,29.99,West,279,1.0,4.0,31,0.00,,,0.00,Wunderground v.1.15,2016-07-27 09:04:00,
2016-07-27 02:10:00,75.4,42.7,29.99,West,279,1.0,4.0,31,0.00,,,0.00,Wunderground v.1.15,2016-07-27 09:10:00,
2016-07-27 02:11:00,75.4,42.7,29.99,West,279,1.0,4.0,31,0.00,,,0.00,Wunderground v.1.15,2016-07-27 09:11:00,
2016-07-27 02:16:00,75.5,41.9,29.77,West,279,1.0,4.0,30,0.00,,,0.00,Wunderground v.1.15,2016-07-27 09:16:00,
2016-07-27 02:21:00,75.6,42.0,29.77,West,279,1.0,4.0,30,0.00,,,0.00,Wunderground v.1.15,2016-07-27 09:21:00,
2016-07-27 02:27:00,75.6,42.0,29.77,West,279,1.0,4.0,30,0.00,,,0.00,Wunderground v.1.15,2016-07-27 09:27:00,
2016-07-27 02:32:00,75.8,42.1,29.77,West,279,1.0,4.0,30,0.00,,,0.00,Wunderground v.1.15,2016-07-27 09:32:00,
2016-07-27 02:34:00,75.8,42.1,29.77,West,279,1.0,4.0,30,0.00,,,0.00,Wunderground v.1.15,2016-07-27 09:34:00,
2016-07-27 02:39:00,75.9,42.2,29.77,West,279,1.0,4.0,30,0.00,,,0.00,Wunderground v.1.15,2016-07-27 09:39:00,
2016-07-27 02:44:00,75.9,42.2,29.77,West,279,1.0,4.0,30,0.00,,,0.00,Wunderground v.1.15,2016-07-27 09:44:00,
2016-07-27 02:50:00,75.8,42.1,29.77,West,279,0.0,4.0,30,0.00,,,0.00,Wunderground v.1.15,2016-07-27 09:50:00,
2016-07-27 02:55:00,75.6,42.8,29.77,West,279,0.0,4.0,31,0.00,,,0.00,Wunderground v.1.15,2016-07-27 09:55:00,
2016-07-27 03:01:00,75.4,42.7,29.77,West,279,0.0,4.0,31,0.00,,,0.00,Wunderground v.1.15,2016-07-27 10:01:00,
2016-07-27 03:06:00,75.1,43.2,29.77,West,279,0.0,4.0,32,0.00,,,0.00,Wunderground v.1.15,2016-07-27 10:06:00,
2016-07-27 03:12:00,74.5,42.7,29.77,West,279,0.0,4.0,32,0.00,,,0.00,Wunderground v.1.15,2016-07-27 10:12:00,
2016-07-27 03:17:00,74.0,43.1,29.77,West,279,0.0,4.0,33,0.00,,,0.00,Wunderground v.1.15,2016-07-27 10:17:00,
2016-07-27 03:23:00,73.6,43.5,29.77,West,279,0.0,4.0,34,0.00,,,0.00,Wunderground v.1.15,2016-07-27 10:23:00,
2016-07-27 03:28:00,73.4,42.5,29.77,West,279,0.0,4.0,33,0.00,,,0.00,Wunderground v.1.15,2016-07-27 10:28:00,
2016-07-27 03:33:00,73.3,42.4,29.77,West,279,0.0,4.0,33,0.00,,,0.00,Wunderground v.1.15,2016-07-27 10:33:00,
2016-07-27 03:39:00,73.2,43.1,29.78,West,279,0.0,4.0,34,0.00,,,0.00,Wunderground v.1.15,2016-07-27 10:39:00,
2016-07-27 03:44:00,73.0,43.0,29.78,West,279,0.0,4.0,34,0.00,,,0.00,Wunderground v.1.15,2016-07-27 10:44:00,
2016-07-27 03:50:00,72.8,42.8,29.78,West,279,0.0,4.0,34,0.00,,,0.00,Wunderground v.1.15,2016-07-27 10:50:00,
2016-07-27 03:55:00,72.7,42.7,29.78,West,279,0.0,4.0,34,0.00,,,0.00,Wunderground v.1.15,2016-07-27 10:55:00,
2016-07-27 04:00:00,72.5,42.5,29.78,West,279,0.0,4.0,34,0.00,,,0.00,Wunderground v.1.15,2016-07-27 11:00:00,
2016-07-27 04:06:00,72.7,41.9,29.78,West,279,0.0,4.0,33,0.00,,,0.00,Wunderground v.1.15,2016-07-27 11:06:00,
2016-07-27 04:11:00,73.6,41.9,29.77,West,279,1.0,4.0,32,0.00,,,0.00,Wunderground v.1.15,2016-07-27 11:11:00,
2016-07-27 04:17:00,74.1,41.5,29.78,West,279,1.0,4.0,31,0.00,,,0.00,Wunderground v.1.15,2016-07-27 11:17:00,
2016-07-27 04:22:00,74.2,41.6,29.77,West,279,0.0,4.0,31,0.00,,,0.00,Wunderground v.1.15,2016-07-27 11:22:00,
2016-07-27 04:28:00,74.4,40.9,29.78,West,279,0.0,4.0,30,0.00,,,0.00,Wunderground v.1.15,2016-07-27 11:28:00,
2016-07-27 04:33:00,74.8,40.4,29.77,West,279,1.0,4.0,29,0.00,,,0.00,Wunderground v.1.15,2016-07-27 11:33:00,
2016-07-27 04:39:00,75.4,40.0,29.77,West,279,1.0,4.0,28,0.00,,,0.00,Wunderground v.1.15,2016-07-27 11:39:00,
2016-07-27 04:44:00,75.6,40.2,29.77,West,279,1.0,4.0,28,0.00,,,0.00,Wunderground v.1.15,2016-07-27 11:44:00,
2016-07-27 04:49:00,75.6,40.2,29.77,West,279,1.0,4.0,28,0.00,,,0.00,Wunderground v.1.15,2016-07-27 11:49:00,
2016-07-27 04:55:00,75.8,39.4,29.77,West,279,1.0,4.0,27,0.00,,,0.00,Wunderground v.1.15,2016-07-27 11:55:00,
2016-07-27 05:01:00,76.0,39.6,29.77,West,279,1.0,4.0,27,0.00,,,0.00,Wunderground v.1.15,2016-07-27 12:01:00,
2016-07-27 05:06:00,76.0,40.5,29.77,West,279,1.0,4.0,28,0.00,,,0.00,Wunderground v.1.15,2016-07-27 12:06:00,
2016-07-27 05:11:00,76.2,40.7,29.77,West,279,1.0,4.0,28,0.00,,,0.00,Wunderground v.1.15,2016-07-27 12:11:00,
2016-07-27 05:17:00,76.3,39.8,29.77,West,279,1.0,4.0,27,0.00,,,0.00,Wunderground v.1.15,2016-07-27 12:17:00,
2016-07-27 05:23:00,76.3,39.8,29.77,West,279,1.0,4.0,27,0.00,,,0.00,Wunderground v.1.15,2016-07-27 12:23:00,
2016-07-27 05:28:00,76.2,40.7,29.77,West,279,1.0,4.0,28,0.00,,,0.00,Wunderground v.1.15,2016-07-27 12:28:00,
2016-07-27 05:34:00,76.2,40.7,29.77,West,279,1.0,4.0,28,0.00,,,0.00,Wunderground v.1.15,2016-07-27 12:34:00,
2016-07-27 05:39:00,76.3,40.8,29.77,West,279,1.0,4.0,28,0.00,,,0.00,Wunderground v.1.15,2016-07-27 12:39:00,
2016-07-27 05:45:00,76.3,40.8,29.77,West,279,1.0,4.0,28,0.00,,,0.00,Wunderground v.1.15,2016-07-27 12:45:00,
2016-07-27 05:50:00,76.2,40.7,29.77,West,279,1.0,4.0,28,0.00,,,0.00,Wunderground v.1.15,2016-07-27 12:50:00,
2016-07-27 05:56:00,76.3,40.8,29.77,West,279,1.0,4.0,28,0.00,,,0.00,Wunderground v.1.15,2016-07-27 12:56:00,
2016-07-27 06:01:00,76.2,40.7,29.77,West,279,1.0,4.0,28,0.00,,,0.00,Wunderground v.1.15,2016-07-27 13:01:00,
2016-07-27 06:07:00,76.2,39.8,29.77,West,279,1.0,4.0,27,0.00,,,0.00,Wunderground v.1.15,2016-07-27 13:07:00,
2016-07-27 06:12:00,76.2,39.8,29.78,West,279,1.0,4.0,27,0.00,,,0.00,Wunderground v.1.15,2016-07-27 13:12:00,
2016-07-27 06:17:00,76.3,39.8,29.78,West,279,1.0,4.0,27,0.00,,,0.00,Wunderground v.1.15,2016-07-27 13:17:00,
2016-07-27 06:23:00,76.3,39.8,29.78,West,279,1.0,4.0,27,0.00,,,0.00,Wunderground v.1.15,2016-07-27 13:23:00,
2016-07-27 06:28:00,76.2,39.8,29.78,West,279,0.0,4.0,27,0.00,,,0.00,Wunderground v.1.15,2016-07-27 13:28:00,
2016-07-27 06:34:00,76.3,39.8,29.78,West,279,0.0,4.0,27,0.00,,,0.00,Wunderground v.1.15,2016-07-27 13:34:00,
2016-07-27 06:39:00,76.4,40.9,29.78,West,279,1.0,4.0,28,0.00,,,0.00,Wunderground v.1.15,2016-07-27 13:39:00,
2016-07-27 06:45:00,76.4,40.9,29.78,West,279,1.0,4.0,28,0.00,,,0.00,Wunderground v.1.15,2016-07-27 13:45:00,
2016-07-27 06:50:00,76.3,39.8,29.79,West,279,1.0,4.0,27,0.00,,,0.00,Wunderground v.1.15,2016-07-27 13:50:00,
2016-07-27 06:56:00,76.3,40.8,29.79,West,279,1.0,4.0,28,0.00,,,0.00,Wunderground v.1.15,2016-07-27 13:56:00,
2016-07-27 07:02:00,76.5,41.0,29.79,West,279,1.0,4.0,28,0.00,,,0.00,Wunderground v.1.15,2016-07-27 14:02:00,
2016-07-27 07:07:00,76.6,41.0,29.79,West,279,1.0,4.0,28,0.00,,,0.00,Wunderground v.1.15,2016-07-27 14:07:00,
2016-07-27 07:12:00,76.7,41.1,29.79,West,279,1.0,4.0,28,0.00,,,0.00,Wunderground v.1.15,2016-07-27 14:12:00,
2016-07-27 07:18:00,76.8,40.3,29.79,West,279,1.0,4.0,27,0.00,,,0.00,Wunderground v.1.15,2016-07-27 14:18:00,
2016-07-27 07:23:00,77.0,40.4,29.79,West,279,1.0,4.0,27,0.00,,,0.00,Wunderground v.1.15,2016-07-27 14:23:00,
2016-07-27 07:28:00,77.1,41.5,29.79,West,279,0.0,4.0,28,0.00,,,0.00,Wunderground v.1.15,2016-07-27 14:28:00,
2016-07-27 07:34:00,77.2,42.5,29.79,West,279,0.0,4.0,29,0.00,,,0.00,Wunderground v.1.15,2016-07-27 14:34:00,
2016-07-27 07:39:00,77.3,41.6,29.79,West,279,0.0,4.0,28,0.00,,,0.00,Wunderground v.1.15,2016-07-27 14:39:00,
2016-07-27 07:45:00,77.6,42.8,29.79,West,279,0.0,4.0,29,0.00,,,0.00,Wunderground v.1.15,2016-07-27 14:45:00,
2016-07-27 07:50:00,77.7,43.8,29.79,West,279,0.0,4.0,30,0.00,,,0.00,Wunderground v.1.15,2016-07-27 14:50:00,
2016-07-27 07:56:00,77.6,42.8,29.79,West,279,0.0,4.0,29,0.00,,,0.00,Wunderground v.1.15,2016-07-27 14:56:00,
2016-07-27 08:01:00,77.6,41.0,29.79,West,279,0.0,4.0,27,0.00,,,0.00,Wunderground v.1.15,2016-07-27 15:01:00,
2016-07-27 08:07:00,77.7,42.0,29.79,West,279,0.0,4.0,28,0.00,,,0.00,Wunderground v.1.15,2016-07-27 15:07:00,
2016-07-27 08:12:00,77.8,40.2,29.79,West,279,0.0,4.0,26,0.00,,,0.00,Wunderground v.1.15,2016-07-27 15:12:00,
2016-07-27 08:17:00,77.9,42.2,29.80,West,279,0.0,4.0,28,0.00,,,0.00,Wunderground v.1.15,2016-07-27 15:17:00,
2016-07-27 08:23:00,78.0,40.3,29.80,West,279,0.0,4.0,26,0.00,,,0.00,Wunderground v.1.15,2016-07-27 15:23:00,
2016-07-27 08:28:00,78.2,42.4,29.80,West,279,0.0,4.0,28,0.00,,,0.00,Wunderground v.1.15,2016-07-27 15:28:00,
2016-07-27 08:34:00,78.4,42.6,29.80,West,279,0.0,4.0,28,0.00,,,0.00,Wunderground v.1.15,2016-07-27 15:34:00,
2016-07-27 08:39:00,78.7,43.8,29.80,West,279,0.0,4.0,29,0.00,,,0.00,Wunderground v.1.15,2016-07-27 15:39:00,
2016-07-27 08:44:00,79.1,45.0,29.80,West,279,0.0,4.0,30,0.00,,,0.00,Wunderground v.1.15,2016-07-27 15:44:00,
2016-07-27 08:50:00,79.5,46.2,29.80,West,279,0.0,4.0,31,0.00,,,0.00,Wunderground v.1.15,2016-07-27 15:50:00,
2016-07-27 08:55:00,79.9,49.8,29.80,West,279,0.0,4.0,35,0.00,,,0.00,Wunderground v.1.15,2016-07-27 15:55:00,
2016-07-27 09:01:00,80.2,47.7,29.79,West,279,0.0,4.0,32,0.00,,,0.00,Wunderground v.1.15,2016-07-27 16:01:00,
2016-07-27 09:06:00,80.7,48.9,29.79,West,279,0.0,4.0,33,0.00,,,0.00,Wunderground v.1.15,2016-07-27 16:06:00,
2016-07-27 09:12:00,81.6,46.3,29.79,West,279,0.0,4.0,29,0.00,,,0.00,Wunderground v.1.15,2016-07-27 16:12:00,
2016-07-27 09:17:00,82.7,40.0,29.80,West,279,0.0,4.0,22,0.00,,,0.00,Wunderground v.1.15,2016-07-27 16:17:00,
2016-07-27 09:23:00,83.8,45.3,29.80,West,279,0.0,4.0,26,0.00,,,0.00,Wunderground v.1.15,2016-07-27 16:23:00,
2016-07-27 09:28:00,85.0,48.2,29.80,West,279,0.0,4.0,28,0.00,,,0.00,Wunderground v.1.15,2016-07-27 16:28:00,
2016-07-27 09:34:00,85.7,49.8,29.80,West,279,0.0,4.0,29,0.00,,,0.00,Wunderground v.1.15,2016-07-27 16:34:00,
2016-07-27 09:39:00,86.4,47.5,29.80,West,279,0.0,4.0,26,0.00,,,0.00,Wunderground v.1.15,2016-07-27 16:39:00,
2016-07-27 09:45:00,87.3,46.1,29.80,West,279,0.0,4.0,24,0.00,,,0.00,Wunderground v.1.15,2016-07-27 16:45:00,
2016-07-27 09:50:00,88.0,44.4,29.80,West,279,0.0,4.0,22,0.00,,,0.00,Wunderground v.1.15,2016-07-27 16:50:00,
2016-07-27 09:55:00,88.3,46.9,29.80,West,279,0.0,4.0,24,0.00,,,0.00,Wunderground v.1.15,2016-07-27 16:55:00,
2016-07-27 10:01:00,88.6,46.1,29.80,West,279,0.0,4.0,23,0.00,,,0.00,Wunderground v.1.15,2016-07-27 17:01:00,
2016-07-27 10:06:00,89.0,44.0,29.80,West,279,0.0,4.0,21,0.00,,,0.00,Wunderground v.1.15,2016-07-27 17:06:00,
2016-07-27 10:12:00,89.2,44.2,29.80,West,271,1.0,4.0,21,0.00,,,0.00,Wunderground v.1.15,2016-07-27 17:12:00,
2016-07-27 10:17:00,89.3,38.8,29.80,West,271,1.0,4.0,17,0.00,,,0.00,Wunderground v.1.15,2016-07-27 17:17:00,
2016-07-27 10:22:00,89.3,41.6,29.80,West,263,1.0,4.0,19,0.00,,,0.00,Wunderground v.1.15,2016-07-27 17:22:00,
2016-07-27 10:28:00,89.2,40.1,29.80,WSW,254,1.0,4.0,18,0.00,,,0.00,Wunderground v.1.15,2016-07-27 17:28:00,
2016-07-27 10:33:00,89.6,41.9,29.80,South,186,1.0,4.0,19,0.00,,,0.00,Wunderground v.1.15,2016-07-27 17:33:00,
2016-07-27 10:39:00,89.8,40.6,29.80,South,184,1.0,4.0,18,0.00,,,0.00,Wunderground v.1.15,2016-07-27 17:39:00,
2016-07-27 10:44:00,90.2,37.9,29.80,South,184,1.0,4.0,16,0.00,,,0.00,Wunderground v.1.15,2016-07-27 17:44:00,
2016-07-27 10:50:00,90.6,41.3,29.80,South,184,1.0,4.0,18,0.00,,,0.00,Wunderground v.1.15,2016-07-27 17:50:00,
2016-07-27 10:55:00,91.0,36.9,29.80,South,184,1.0,4.0,15,0.00,,,0.00,Wunderground v.1.15,2016-07-27 17:55:00,
2016-07-27 11:01:00,91.4,38.9,29.80,South,184,1.0,4.0,16,0.00,,,0.00,Wunderground v.1.15,2016-07-27 18:01:00,
2016-07-27 11:06:00,91.6,31.8,29.80,SSE,159,1.0,4.0,12,0.00,,,0.00,Wunderground v.1.15,2016-07-27 18:06:00,
2016-07-27 11:11:00,91.5,40.5,29.80,SSE,159,1.0,4.0,17,0.00,,,0.00,Wunderground v.1.15,2016-07-27 18:11:00,
2016-07-27 11:17:00,91.9,37.6,29.80,SSE,159,1.0,4.0,15,0.00,,,0.00,Wunderground v.1.15,2016-07-27 18:17:00,
2016-07-27 11:22:00,92.5,36.4,29.80,SSE,159,1.0,4.0,14,0.00,,,0.00,Wunderground v.1.15,2016-07-27 18:22:00,
2016-07-27 11:28:00,92.9,36.7,29.80,SSE,165,2.0,4.0,14,0.00,,,0.00,Wunderground v.1.15,2016-07-27 18:28:00,
2016-07-27 11:34:00,92.7,38.3,29.80,SSE,151,2.0,4.0,15,0.00,,,0.00,Wunderground v.1.15,2016-07-27 18:34:00,
2016-07-27 11:40:00,93.1,38.6,29.80,SSE,148,1.0,4.0,15,0.00,,,0.00,Wunderground v.1.15,2016-07-27 18:40:00,
2016-07-27 11:45:00,93.4,40.5,29.80,SSE,150,1.0,4.0,16,0.00,,,0.00,Wunderground v.1.15,2016-07-27 18:45:00,
2016-07-27 11:50:00,93.5,38.9,29.80,SE,142,2.0,4.0,15,0.00,,,0.00,Wunderground v.1.15,2016-07-27 18:50:00,
2016-07-27 11:56:00,93.6,43.7,29.80,SE,142,1.0,4.0,18,0.00,,,0.00,Wunderground v.1.15,2016-07-27 18:56:00,
2016-07-27 12:01:00,93.7,39.1,29.80,East,87,1.0,4.0,15,0.00,,,0.00,Wunderground v.1.15,2016-07-27 19:01:00,
2016-07-27 12:07:00,93.8,45.3,29.80,East,93,1.0,4.0,19,0.00,,,0.00,Wunderground v.1.15,2016-07-27 19:07:00,
2016-07-27 12:12:00,93.9,39.2,29.80,SE,126,2.0,4.0,15,0.00,,,0.00,Wunderground v.1.15,2016-07-27 19:12:00,
2016-07-27 12:18:00,94.0,39.3,29.80,SSE,151,2.0,4.0,15,0.00,,,0.00,Wunderground v.1.15,2016-07-27 19:18:00,
2016-07-27 12:23:00,94.0,42.5,29.80,WNW,286,1.0,4.0,17,0.00,,,0.00,Wunderground v.1.15,2016-07-27 19:23:00,
2016-07-27 12:29:00,94.7,43.1,29.80,ENE,69,1.0,4.0,17,0.00,,,0.00,Wunderground v.1.15,2016-07-27 19:29:00,
2016-07-27 12:34:00,94.7,39.9,29.80,ENE,61,2.0,7.0,15,0.00,,,0.00,Wunderground v.1.15,2016-07-27 19:34:00,
2016-07-27 12:40:00,94.7,39.9,29.80,SE,136,2.0,2.0,15,0.00,,,0.00,Wunderground v.1.15,2016-07-27 19:40:00,
2016-07-27 12:45:00,94.7,41.5,29.80,SE,139,2.0,4.0,16,0.00,,,0.00,Wunderground v.1.15,2016-07-27 19:45:00,
2016-07-27 12:50:00,95.0,41.8,29.80,SE,132,1.0,4.0,16,0.00,,,0.00,Wunderground v.1.15,2016-07-27 19:50:00,
2016-07-27 13:01:00,95.9,40.8,29.80,SE,131,1.0,4.0,15,0.00,,,0.00,Wunderground v.1.15,2016-07-27 20:01:00,
2016-07-27 13:07:00,96.1,41.0,29.80,SE,142,2.0,4.0,15,0.00,,,0.00,Wunderground v.1.15,2016-07-27 20:07:00,
2016-07-27 13:12:00,96.2,41.1,29.80,SE,142,2.0,4.0,15,0.00,,,0.00,Wunderground v.1.15,2016-07-27 20:12:00,
2016-07-27 13:17:00,96.6,39.6,29.80,SE,142,1.0,4.0,14,0.00,,,0.00,Wunderground v.1.15,2016-07-27 20:17:00,
2016-07-27 13:23:00,96.9,44.9,29.80,SE,140,1.0,4.0,17,0.00,,,0.00,Wunderground v.1.15,2016-07-27 20:23:00,
2016-07-27 13:28:00,96.7,44.7,29.80,ESE,104,2.0,5.0,17,0.00,,,0.00,Wunderground v.1.15,2016-07-27 20:28:00,
2016-07-27 13:34:00,96.5,43.0,29.80,SE,136,2.0,4.0,16,0.00,,,0.00,Wunderground v.1.15,2016-07-27 20:34:00,
2016-07-27 13:45:00,96.9,46.4,29.79,SE,136,1.0,4.0,18,0.00,,,0.00,Wunderground v.1.15,2016-07-27 20:45:00,
2016-07-27 13:50:00,97.5,45.4,29.80,SE,136,1.0,4.0,17,0.00,,,0.00,Wunderground v.1.15,2016-07-27 20:50:00,
2016-07-27 13:55:00,98.2,44.3,29.80,SE,132,1.0,6.0,16,0.00,,,0.00,Wunderground v.1.15,2016-07-27 20:55:00,
2016-07-27 14:01:00,97.7,45.5,29.79,SE,141,2.0,4.0,17,0.00,,,0.00,Wunderground v.1.15,2016-07-27 21:01:00,
2016-07-27 14:06:00,97.0,45.0,29.79,NE,50,2.0,4.0,17,0.00,,,0.00,Wunderground v.1.15,2016-07-27 21:06:00,
2016-07-27 14:12:00,97.2,46.6,29.79,ESE,116,2.0,4.0,18,0.00,,,0.00,Wunderground v.1.15,2016-07-27 21:12:00,
2016-07-27 14:17:00,97.6,47.0,29.79,SSE,155,1.0,4.0,18,0.00,,,0.00,Wunderground v.1.15,2016-07-27 21:17:00,
2016-07-27 14:22:00,97.6,47.0,29.78,SSE,151,1.0,4.0,18,0.00,,,0.00,Wunderground v.1.15,2016-07-27 21:22:00,
2016-07-27 14:28:00,97.5,46.9,29.78,NE,35,1.0,4.0,18,0.00,,,0.00,Wunderground v.1.15,2016-07-27 21:28:00,
2016-07-27 14:33:00,97.5,48.3,29.78,ESE,119,2.0,4.0,19,0.00,,,0.00,Wunderground v.1.15,2016-07-27 21:33:00,
2016-07-27 14:39:00,96.9,49.2,29.78,SSE,164,2.0,5.0,20,0.00,,,0.00,Wunderground v.1.15,2016-07-27 21:39:00,
2016-07-27 14:44:00,96.9,47.8,29.78,WNW,297,2.0,4.0,19,0.00,,,0.00,Wunderground v.1.15,2016-07-27 21:44:00,
2016-07-27 14:50:00,97.4,48.2,29.78,NE,51,1.0,4.0,19,0.00,,,0.00,Wunderground v.1.15,2016-07-27 21:50:00,
2016-07-27 14:56:00,98.1,45.8,29.78,NE,52,1.0,4.0,17,0.00,,,0.00,Wunderground v.1.15,2016-07-27 21:56:00,
2016-07-27 15:01:00,98.7,49.3,29.78,SSE,157,1.0,4.0,19,0.00,,,0.00,Wunderground v.1.15,2016-07-27 22:01:00,
2016-07-27 15:07:00,98.8,50.8,29.78,SSE,160,1.0,4.0,20,0.00,,,0.00,Wunderground v.1.15,2016-07-27 22:07:00,
2016-07-27 15:12:00,98.4,49.0,29.77,SSW,199,1.0,4.0,19,0.00,,,0.00,Wunderground v.1.15,2016-07-27 22:12:00,
2016-07-27 15:18:00,98.1,51.5,29.77,ESE,105,1.0,4.0,21,0.00,,,0.00,Wunderground v.1.15,2016-07-27 22:18:00,
2016-07-27 15:23:00,98.1,50.2,29.77,SSE,150,1.0,4.0,20,0.00,,,0.00,Wunderground v.1.15,2016-07-27 22:23:00,
2016-07-27 15:29:00,97.9,51.3,29.77,South,172,1.0,4.0,21,0.00,,,0.00,Wunderground v.1.15,2016-07-27 22:29:00,
2016-07-27 15:34:00,98.1,51.5,29.77,South,190,1.0,4.0,21,0.00,,,0.00,Wunderground v.1.15,2016-07-27 22:34:00,
2016-07-27 15:39:00,98.4,49.0,29.77,East,89,1.0,4.0,19,0.00,,,0.00,Wunderground v.1.15,2016-07-27 22:39:00,
2016-07-27 15:45:00,98.7,50.7,29.77,East,89,1.0,4.0,20,0.00,,,0.00,Wunderground v.1.15,2016-07-27 22:45:00,
2016-07-27 15:50:00,98.5,46.2,29.77,SE,126,1.0,5.0,17,0.00,,,0.00,Wunderground v.1.15,2016-07-27 22:50:00,
2016-07-27 15:56:00,97.8,48.6,29.77,SE,126,1.0,5.0,19,0.00,,,0.00,Wunderground v.1.15,2016-07-27 22:56:00,
2016-07-27 16:01:00,97.4,50.9,29.77,SE,126,1.0,4.0,21,0.00,,,0.00,Wunderground v.1.15,2016-07-27 23:01:00,
2016-07-27 16:07:00,97.0,47.9,29.76,SE,137,1.0,4.0,19,0.00,,,0.00,Wunderground v.1.15,2016-07-27 23:07:00,
2016-07-27 16:12:00,96.9,51.8,29.77,SE,137,1.0,4.0,22,0.00,,,0.00,Wunderground v.1.15,2016-07-27 23:12:00,
2016-07-27 16:17:00,96.8,46.3,29.77,NE,38,1.0,4.0,18,0.00,,,0.00,Wunderground v.1.15,2016-07-27 23:17:00,
2016-07-27 16:23:00,96.7,50.3,29.77,NE,38,1.0,4.0,21,0.00,,,0.00,Wunderground v.1.15,2016-07-27 23:23:00,
2016-07-27 16:28:00,95.8,48.3,29.77,SE,126,1.0,4.0,20,0.00,,,0.00,Wunderground v.1.15,2016-07-27 23:28:00,
2016-07-27 16:34:00,95.3,51.6,29.77,SE,126,1.0,4.0,23,0.00,,,0.00,Wunderground v.1.15,2016-07-27 23:34:00,
2016-07-27 16:39:00,95.2,50.4,29.76,SE,128,0.0,4.0,22,0.00,,,0.00,Wunderground v.1.15,2016-07-27 23:39:00,
2016-07-27 16:45:00,94.9,48.9,29.76,SE,126,1.0,4.0,21,0.00,,,0.00,Wunderground v.1.15,2016-07-27 23:45:00,
2016-07-27 16:50:00,94.2,50.7,29.76,SE,126,1.0,4.0,23,0.00,,,0.00,Wunderground v.1.15,2016-07-27 23:50:00,
2016-07-27 16:55:00,93.3,50.0,29.76,SE,126,1.0,4.0,23,0.00,,,0.00,Wunderground v.1.15,2016-07-27 23:55:00,
2016-07-27 17:01:00,92.5,51.6,29.76,SE,126,1.0,4.0,25,0.00,,,0.00,Wunderground v.1.15,2016-07-28 00:01:00,
2016-07-27 17:06:00,91.8,51.0,29.76,SE,126,1.0,4.0,25,0.00,,,0.00,Wunderground v.1.15,2016-07-28 00:06:00,
2016-07-27 17:12:00,91.1,50.4,29.76,SE,126,1.0,4.0,25,0.00,,,0.00,Wunderground v.1.15,2016-07-28 00:12:00,
2016-07-27 17:18:00,90.2,50.7,29.76,SE,126,1.0,4.0,26,0.00,,,0.00,Wunderground v.1.15,2016-07-28 00:18:00,
2016-07-27 17:23:00,89.5,50.1,29.76,SE,126,1.0,4.0,26,0.00,,,0.00,Wunderground v.1.15,2016-07-28 00:23:00,
2016-07-27 17:28:00,89.0,49.7,29.76,SE,126,1.0,4.0,26,0.00,,,0.00,Wunderground v.1.15,2016-07-28 00:28:00,
2016-07-27 17:34:00,88.4,50.2,29.75,SE,126,1.0,4.0,27,0.00,,,0.00,Wunderground v.1.15,2016-07-28 00:34:00,
2016-07-27 17:39:00,87.8,49.7,29.75,SE,126,1.0,4.0,27,0.00,,,0.00,Wunderground v.1.15,2016-07-28 00:39:00,
2016-07-27 17:45:00,87.5,49.4,29.75,SE,126,1.0,4.0,27,0.00,,,0.00,Wunderground v.1.15,2016-07-28 00:45:00,
2016-07-27 17:50:00,87.1,50.0,29.75,SE,126,1.0,4.0,28,0.00,,,0.00,Wunderground v.1.15,2016-07-28 00:50:00,
2016-07-27 17:56:00,86.8,49.8,29.75,SE,126,1.0,4.0,28,0.00,,,0.00,Wunderground v.1.15,2016-07-28 00:56:00,
2016-07-27 18:01:00,86.6,49.6,29.75,SE,126,1.0,4.0,28,0.00,,,0.00,Wunderground v.1.15,2016-07-28 01:01:00,
2016-07-27 18:06:00,86.5,49.5,29.75,SE,126,1.0,4.0,28,0.00,,,0.00,Wunderground v.1.15,2016-07-28 01:06:00,
2016-07-27 18:12:00,86.3,48.4,29.75,SE,126,1.0,4.0,27,0.00,,,0.00,Wunderground v.1.15,2016-07-28 01:12:00,
2016-07-27 18:18:00,86.1,49.2,29.75,SE,126,1.0,4.0,28,0.00,,,0.00,Wunderground v.1.15,2016-07-28 01:18:00,
2016-07-27 18:23:00,86.1,49.2,29.75,SE,126,1.0,4.0,28,0.00,,,0.00,Wunderground v.1.15,2016-07-28 01:23:00,
2016-07-27 18:29:00,86.0,48.1,29.75,SE,126,1.0,4.0,27,0.00,,,0.00,Wunderground v.1.15,2016-07-28 01:29:00,
2016-07-27 18:34:00,85.9,48.0,29.75,SE,126,1.0,4.0,27,0.00,,,0.00,Wunderground v.1.15,2016-07-28 01:34:00,
2016-07-27 18:40:00,85.8,48.9,29.74,SE,126,1.0,1.0,28,0.00,,,0.00,Wunderground v.1.15,2016-07-28 01:40:00,
2016-07-27 18:45:00,85.6,48.8,29.75,SE,126,1.0,4.0,28,0.00,,,0.00,Wunderground v.1.15,2016-07-28 01:45:00,
2016-07-27 18:51:00,85.5,48.7,29.75,SE,126,1.0,4.0,28,0.00,,,0.00,Wunderground v.1.15,2016-07-28 01:51:00,
2016-07-27 18:56:00,85.4,49.5,29.75,SE,126,1.0,4.0,29,0.00,,,0.00,Wunderground v.1.15,2016-07-28 01:56:00,
2016-07-27 19:02:00,85.3,49.4,29.75,SE,126,1.0,4.0,29,0.00,,,0.00,Wunderground v.1.15,2016-07-28 02:02:00,
2016-07-27 19:07:00,85.2,49.4,29.75,SE,126,0.0,4.0,29,0.00,,,0.00,Wunderground v.1.15,2016-07-28 02:07:00,
2016-07-27 19:13:00,85.0,50.1,29.75,SE,126,0.0,4.0,30,0.00,,,0.00,Wunderground v.1.15,2016-07-28 02:13:00,
2016-07-27 19:18:00,84.7,50.7,29.75,SE,126,1.0,4.0,31,0.00,,,0.00,Wunderground v.1.15,2016-07-28 02:18:00,
2016-07-27 19:24:00,84.6,50.6,29.75,SE,126,1.0,4.0,31,0.00,,,0.00,Wunderground v.1.15,2016-07-28 02:24:00,
2016-07-27 19:29:00,84.3,52.1,29.75,SE,126,0.0,4.0,33,0.00,,,0.00,Wunderground v.1.15,2016-07-28 02:29:00,
2016-07-27 19:35:00,84.0,51.8,29.75,SE,126,0.0,4.0,33,0.00,,,0.00,Wunderground v.1.15,2016-07-28 02:35:00,
2016-07-27 19:40:00,83.6,51.5,29.76,SE,126,0.0,4.0,33,0.00,,,0.00,Wunderground v.1.15,2016-07-28 02:40:00,
2016-07-27 19:46:00,83.3,51.2,29.76,SE,126,0.0,4.0,33,0.00,,,0.00,Wunderground v.1.15,2016-07-28 02:46:00,
2016-07-27 19:51:00,83.1,51.8,29.76,SE,126,1.0,4.0,34,0.00,,,0.00,Wunderground v.1.15,2016-07-28 02:51:00,
2016-07-27 19:57:00,83.0,50.9,29.76,SE,126,1.0,4.0,33,0.00,,,0.00,Wunderground v.1.15,2016-07-28 02:57:00,
2016-07-27 20:02:00,82.8,49.9,29.76,SE,126,1.0,4.0,32,0.00,,,0.00,Wunderground v.1.15,2016-07-28 03:02:00,
2016-07-27 20:08:00,82.8,49.9,29.76,SE,126,2.0,4.0,32,0.00,,,0.00,Wunderground v.1.15,2016-07-28 03:08:00,
2016-07-27 20:14:00,82.7,49.8,29.76,SE,126,1.0,4.0,32,0.00,,,0.00,Wunderground v.1.15,2016-07-28 03:14:00,
2016-07-27 20:19:00,82.3,49.5,29.76,SE,126,0.0,4.0,32,0.00,,,0.00,Wunderground v.1.15,2016-07-28 03:19:00,
2016-07-27 20:24:00,82.1,50.1,29.76,SE,126,1.0,4.0,33,0.00,,,0.00,Wunderground v.1.15,2016-07-28 03:24:00,
2016-07-27 20:30:00,82.0,50.1,29.76,SE,126,1.0,1.0,33,0.00,,,0.00,Wunderground v.1.15,2016-07-28 03:30:00,
2016-07-27 20:35:00,81.7,50.6,29.76,SE,126,0.0,4.0,34,0.00,,,0.00,Wunderground v.1.15,2016-07-28 03:35:00,
2016-07-27 20:41:00,81.4,50.3,29.76,SE,126,0.0,4.0,34,0.00,,,0.00,Wunderground v.1.15,2016-07-28 03:41:00,
2016-07-27 20:46:00,81.3,50.2,29.76,SE,126,0.0,4.0,34,0.00,,,0.00,Wunderground v.1.15,2016-07-28 03:46:00,
2016-07-27 20:51:00,81.1,50.1,29.76,SE,126,0.0,4.0,34,0.00,,,0.00,Wunderground v.1.15,2016-07-28 03:51:00,
2016-07-27 20:57:00,81.1,50.1,29.76,SE,126,0.0,4.0,34,0.00,,,0.00,Wunderground v.1.15,2016-07-28 03:57:00,
2016-07-27 21:02:00,81.0,50.0,29.77,SE,126,0.0,4.0,34,0.00,,,0.00,Wunderground v.1.15,2016-07-28 04:02:00,
2016-07-27 21:08:00,81.0,50.0,29.77,SE,126,0.0,4.0,34,0.00,,,0.00,Wunderground v.1.15,2016-07-28 04:08:00,
2016-07-27 21:13:00,80.7,49.7,29.77,SE,126,0.0,4.0,34,0.00,,,0.00,Wunderground v.1.15,2016-07-28 04:13:00,
2016-07-27 21:19:00,80.5,49.5,29.78,SE,126,0.0,4.0,34,0.00,,,0.00,Wunderground v.1.15,2016-07-28 04:19:00,
2016-07-27 21:24:00,80.4,49.5,29.78,SE,126,0.0,4.0,34,0.00,,,0.00,Wunderground v.1.15,2016-07-28 04:24:00,
2016-07-27 21:30:00,80.1,49.2,29.77,SE,126,0.0,4.0,34,0.00,,,0.00,Wunderground v.1.15,2016-07-28 04:30:00,
2016-07-27 21:35:00,79.8,48.9,29.78,SE,126,0.0,4.0,34,0.00,,,0.00,Wunderground v.1.15,2016-07-28 04:35:00,
2016-07-27 21:40:00,79.6,48.8,29.78,SE,126,0.0,4.0,34,0.00,,,0.00,Wunderground v.1.15,2016-07-28 04:40:00,
2016-07-27 21:46:00,79.5,48.7,29.78,SE,126,0.0,4.0,34,0.00,,,0.00,Wunderground v.1.15,2016-07-28 04:46:00,
2016-07-27 21:52:00,79.3,48.5,29.78,SE,126,0.0,4.0,34,0.00,,,0.00,Wunderground v.1.15,2016-07-28 04:52:00,
2016-07-27 21:57:00,79.3,48.5,29.78,SE,126,0.0,4.0,34,0.00,,,0.00,Wunderground v.1.15,2016-07-28 04:57:00,
2016-07-27 22:02:00,79.4,48.6,29.78,SE,126,1.0,4.0,34,0.00,,,0.00,Wunderground v.1.15,2016-07-28 05:02:00,
2016-07-27 22:08:00,79.3,48.5,29.78,SE,126,0.0,4.0,34,0.00,,,0.00,Wunderground v.1.15,2016-07-28 05:08:00,
2016-07-27 22:13:00,79.3,48.5,29.78,SE,126,0.0,4.0,34,0.00,,,0.00,Wunderground v.1.15,2016-07-28 05:13:00,
2016-07-27 22:19:00,79.3,48.5,29.78,SE,126,0.0,4.0,34,0.00,,,0.00,Wunderground v.1.15,2016-07-28 05:19:00,
2016-07-27 22:24:00,79.2,48.4,29.78,SE,126,0.0,4.0,34,0.00,,,0.00,Wunderground v.1.15,2016-07-28 05:24:00,
2016-07-27 22:29:00,79.2,47.6,29.78,SE,126,0.0,4.0,33,0.00,,,0.00,Wunderground v.1.15,2016-07-28 05:29:00,
2016-07-27 22:35:00,79.4,47.8,29.78,SE,126,1.0,4.0,33,0.00,,,0.00,Wunderground v.1.15,2016-07-28 05:35:00,
2016-07-27 22:41:00,79.5,47.9,29.78,SE,126,1.0,4.0,33,0.00,,,0.00,Wunderground v.1.15,2016-07-28 05:41:00,
2016-07-27 22:46:00,79.5,47.9,29.78,SE,126,1.0,4.0,33,0.00,,,0.00,Wunderground v.1.15,2016-07-28 05:46:00,
2016-07-27 22:51:00,79.6,47.1,29.78,SE,126,1.0,4.0,32,0.00,,,0.00,Wunderground v.1.15,2016-07-28 05:51:00,
2016-07-27 22:57:00,79.6,47.1,29.78,SE,126,1.0,4.0,32,0.00,,,0.00,Wunderground v.1.15,2016-07-28 05:57:00,
2016-07-27 23:02:00,79.6,47.1,29.77,SE,126,1.0,4.0,32,0.00,,,0.00,Wunderground v.1.15,2016-07-28 06:02:00,
2016-07-27 23:08:00,79.7,47.2,29.78,SE,126,1.0,4.0,32,0.00,,,0.00,Wunderground v.1.15,2016-07-28 06:08:00,
2016-07-27 23:13:00,79.6,47.1,29.77,SE,126,0.0,4.0,32,0.00,,,0.00,Wunderground v.1.15,2016-07-28 06:13:00,
2016-07-27 23:18:00,79.4,47.0,29.78,SE,126,0.0,4.0,32,0.00,,,0.00,Wunderground v.1.15,2016-07-28 06:18:00,
2016-07-27 23:24:00,79.2,46.8,29.78,SE,126,0.0,4.0,32,0.00,,,0.00,Wunderground v.1.15,2016-07-28 06:24:00,
2016-07-27 23:30:00,79.0,46.6,29.78,SE,126,0.0,4.0,32,0.00,,,0.00,Wunderground v.1.15,2016-07-28 06:30:00,